Weather History for KLND - March, 2014

Change the Weather History Date:

Monday, March 3, 2014

  Actual Average Record
Temperature  
Mean Temperature 30 °F 31 °F  
Max Temperature 50 °F 43 °F 70 °F (1921)
Min Temperature 10 °F 19 °F -22 °F (1896)
Degree Days  
Heating Degree Days 35 34  
Month to date heating degree days 152 103  
Since 1 July heating degree days 5888 5807  
Cooling Degree Days 0 0  
Month to date cooling degree days 0 0  
Year to date cooling degree days 0 0  
Moisture  
Dew Point 17 °F    
Average Humidity 57    
Maximum Humidity 84    
Minimum Humidity 29    
Precipitation  
Precipitation T in 0.03 in 0.63 in (1946)
Month to date precipitation 0.23 0.08  
Year to date precipitation 1.03 1.07  
Snow  
Snow 0.00 in 0.40 in - ()
Month to date snowfall 3.4 1.2  
Since 1 July snowfall 58.7 54.8  
Snow Depth 2.00 in    
Sea Level Pressure  
Sea Level Pressure 29.99 in    
Wind  
Wind Speed 5 mph (NW)    
Max Wind Speed 25 mph    
Max Gust Speed 33 mph    
Visibility 10 miles    
Events      
T = Trace of Precipitation, MM = Missing Value Source: NWS Daily Summary

Daily Weather History Graph

Daily Weather History Graph

Search for Another Location

Airport or City:

Trip Planner

Search our weather history database for the weather conditions in past years. The results will help you decide how hot, cold, wet, or windy it might be!

Date:

Astronomy

Mar. 03, 2014 Rise Set
Actual Time 6:47 AM MST 6:06 PM MST
Civil Twilight 6:18 AM MST 6:35 PM MST
Nautical Twilight 5:46 AM MST 7:08 PM MST
Astronomical Twilight 5:13 AM MST 7:40 PM MST
Moon 7:53 AM MST (3/3) 9:18 PM MST (3/3)
Length of Visible Light 12h 16m
Length of Day
11h 19m
Waxing Crescent, 8% of the Moon is Illuminated
Mar 3
Waxing Crescent
Mar 8
First Quarter
Mar 16
Full
Mar 23
Last Quarter
Mar 30
New

Hourly Weather History & Observations

Time (MST) Temp. Windchill Dew Point Humidity Pressure Visibility Wind Dir Wind Speed Gust Speed Precip Events Conditions
12:53 AM 15.1 °F 5.2 °F 9.0 °F 77% 30.12 in 8.0 mi NW 6.9 mph - N/A   Clear
1:53 AM 16.0 °F - 9.0 °F 74% 30.09 in 10.0 mi Calm Calm - N/A   Clear
2:53 AM 15.1 °F 5.2 °F 9.0 °F 77% 30.08 in 10.0 mi West 6.9 mph - N/A   Partly Cloudy
3:53 AM 12.9 °F 0.7 °F 8.1 °F 81% 30.07 in 10.0 mi West 9.2 mph - N/A   Clear
4:53 AM 15.1 °F 9.4 °F 8.1 °F 74% 30.05 in 10.0 mi Variable 3.5 mph - N/A   Clear
5:53 AM 12.9 °F 3.8 °F 8.1 °F 81% 30.09 in 10.0 mi NE 5.8 mph - N/A   Clear
6:53 AM 12.9 °F 3.8 °F 7.0 °F 77% 30.09 in 10.0 mi WNW 5.8 mph - N/A   Clear
7:53 AM 15.1 °F - 10.0 °F 80% 30.09 in 10.0 mi Calm Calm - N/A   Clear
8:53 AM 21.0 °F - 12.0 °F 68% 30.09 in 10.0 mi Calm Calm - N/A   Clear
9:53 AM 24.1 °F 19.7 °F 16.0 °F 71% 30.06 in 10.0 mi South 3.5 mph - N/A   Clear
10:53 AM 32.0 °F 27.5 °F 19.0 °F 59% 30.04 in 9.0 mi NE 4.6 mph - N/A   Clear
11:53 AM 37.9 °F 34.4 °F 21.0 °F 51% 30.00 in 10.0 mi WNW 4.6 mph - N/A   Clear
12:53 PM 44.1 °F 42.5 °F 24.1 °F 45% 29.95 in 10.0 mi NNE 3.5 mph - N/A   Clear
1:53 PM 48.0 °F - 28.9 °F 48% 29.93 in 10.0 mi Variable 4.6 mph 19.6 mph N/A   Clear
2:53 PM 48.0 °F - 28.0 °F 46% 29.92 in 10.0 mi Calm Calm - N/A   Clear
3:53 PM 48.0 °F - 26.1 °F 42% 29.93 in 10.0 mi Calm Calm - N/A   Clear
4:53 PM 50.0 °F - 19.0 °F 29% 29.89 in 10.0 mi NNW 9.2 mph - 0.00 in   Clear
5:53 PM 46.0 °F 41.4 °F 21.0 °F 37% 29.91 in 10.0 mi West 9.2 mph - N/A   Clear
6:53 PM 45.0 °F 37.9 °F 19.9 °F 37% 29.92 in 10.0 mi WNW 16.1 mph 25.3 mph N/A   Clear
7:53 PM 44.1 °F 36.8 °F 21.0 °F 40% 29.91 in 10.0 mi NW 16.1 mph 25.3 mph N/A   Clear
8:53 PM 44.1 °F - 21.0 °F 40% 29.89 in 10.0 mi Calm Calm - N/A   Partly Cloudy
9:53 PM 41.0 °F 38.0 °F 21.9 °F 47% 29.88 in 10.0 mi SSE 4.6 mph - N/A   Clear
10:53 PM 43.0 °F - 21.0 °F 42% 29.83 in 10.0 mi North - - N/A   Clear
11:53 PM 43.0 °F 40.3 °F 21.9 °F 43% 29.81 in 10.0 mi WNW 4.6 mph 18.4 mph N/A   Partly Cloudy